www.pogodaiklimat.ru

Погода и климат >> Архив погоды >> Турция >> Шанлыурфа


ПОГОДА в Шанлыурфе

  • Прогноз погоды в Шанлыурфе
  • Монитор погоды в Шанлыурфе

АРХИВ ПОГОДЫ в Шанлыурфе

Время (UTC), дата Ветер
(напр.,м/с)
 
Видим.   Явления Облачность Т
(С)
Тd
(С)
f
(%)
Тe
(С)
Тes
(С)
Комфортность P
(гПа)
Po
(гПа)
Тmin
(С)
Tmax
(С)
R
(мм)
R24
(мм)
S
(см)
16 14.05 С 1 20 км ясно +30.0 +8.0 25 +29 +29 жарко 1010.4 949.6
17 14.05 штиль 0 20 км ясно +27.1 +9.2 32 +27 +27 жарко 1010.8 950.1
18 14.05 З 1
{5}
20 км ясно +26.5 +9.4 34 +27 +27 жарко 1011.2 950.6 +35.3
06 15.05 ЮВ 1
{3}
20 км ясно +31.6 +8.8 24 +31 +43 жарко 1011.7 951.4 +21.9
07 15.05 В 1 20 км ясно +34.1 +6.9 19 +32 +49 жарко 1011.3 951.2
08 15.05 СВ 1 20 км ясно +34.6 +5.2 16 +32 +53 опасность
солнечного
удара
1011.1 951.0
09 15.05 ЮВ 2
{4}
20 км ясно +35.3 +5.7 16 +33 +55 опасность
солнечного
удара
1010.8 950.7
10 15.05 С 1 20 км ясно +35.5 +4.6 15 +33 +56 опасность
солнечного
удара
1010.4 950.3
11 15.05 СЗ 2 20 км ясно +34.7 +3.5 14 +32 +49 жарко 1010.1 949.9
12 15.05 СВ 1
{7}
20 км ясно +36.0 +3.4 13 +33 +49 жарко 1009.4 949.4
13 15.05 С 1 20 км ясно +35.6 +5.2 15 +33 +44 жарко 1008.9 948.8
14 15.05 С 1 20 км ясно +34.8 +3.1 14 +32 +38 жарко 1008.7 948.5
15 15.05 С 1
{5}
20 км ясно +33.1 +5.3 18 +31 +33 жарко 1008.6 948.2
16 15.05 С 1 20 км ясно +30.7 +6.0 21 +29 +29 жарко 1008.9 948.4
17 15.05 СЗ 1 20 км ясно +27.3 +7.4 28 +27 +27 жарко 1008.9 948.5
18 15.05 З 1
{5}
20 км ясно +27.1 +6.8 28 +27 +27 жарко 1008.9 948.8 +36.7
06 16.05 СЗ 1
{4}
20 км ясно +31.2 +8.7 25 +30 +43 жарко 1008.0 948.0 +20.9
07 16.05 СВ 1 20 км ясно +34.5 +6.0 17 +32 +51 опасность
солнечного
удара
1007.7 947.9
08 16.05 СВ 1 20 км ясно +35.3 +3.9 14 +32 +54 опасность
солнечного
удара
1007.7 947.9
09 16.05 В 1
{4}
20 км ясно +36.4 +2.6 12 +33 +57 опасность
солнечного
удара
1007.3 947.6
10 16.05 В 2 20 км ясно +36.5 +2.5 12 +33 +55 опасность
солнечного
удара
1006.7 947.0
11 16.05 В 1 20 км ясно +36.9 +2.8 12 +34 +56 опасность
солнечного
удара
1006.4 946.6
12 16.05 В 1
{4}
20 км ясно +37.6 +3.3 12 +34 +51 опасность
солнечного
удара
1005.9 946.2
13 16.05 В 1 20 км ясно +36.9 +4.1 13 +34 +45 очень
жарко
1005.4 945.7
14 16.05 В 1 20 км ясно +35.9 +4.3 14 +33 +39 жарко 1005.3 945.3
15 16.05 В 1
{4}
20 км ясно +32.7 +6.1 19 +31 +33 жарко 1005.3 945.1
16 16.05 В 1 20 км ясно +31.0 +5.5 20 +29 +29 жарко 1005.2 945.0
17 16.05 штиль 0 20 км ясно +29.0 +6.3 24 +28 +28 жарко 1005.2 945.2
18 16.05 СЗ 1
{4}
20 км ясно +27.1 +6.8 28 +27 +27 жарко 1005.5 945.6 +38.0
06 17.05 ЮВ 1
{4}
20 км 3/3 1200 м
[Cu hum]
+32.1 +9.0 24 +31 +40 жарко 1005.9 946.1 +21.8
07 17.05 ЮВ 2 20 км ясно +34.1 +7.2 19 +32 +48 жарко 1005.6 945.9
08 17.05 В 2 20 км ясно +35.1 +7.2 18 +33 +51 опасность
солнечного
удара
1005.4 945.8
09 17.05 ЮВ 2
{6}
20 км ясно +36.8 +4.9 14 +34 +54 опасность
солнечного
удара
1004.7 945.2
10 17.05 В 3 20 км ясно +37.0 +5.0 14 +34 +52 опасность
солнечного
удара
1004.1 944.6
11 17.05 В 2 20 км ясно +38.3 +5.3 13 +35 +53 опасность
солнечного
удара
1003.3 943.9
12 17.05 ЮВ 3
{8}
20 км ясно +37.3 +4.4 13 +34 +47 очень
жарко
1002.6 943.1
13 17.05 ЮВ 2 20 км ясно +37.7 +6.8 15 +35 +45 очень
жарко
1001.9 942.4
14 17.05 ЮВ 3 20 км ясно +36.6 +6.7 16 +34 +39 очень
жарко
1001.7 942.1
15 17.05 В 2
{10}
20 км ясно +34.1 +8.6 21 +33 +35 жарко 1001.8 942.0
16 17.05 З 1 20 км ясно +32.6 +5.0 18 +30 +31 жарко 1002.2 942.3
17 17.05 З 1 20 км ясно +30.6 +5.6 21 +29 +29 жарко 1001.8 942.3
18 17.05 штиль 0
{10}
20 км ясно +28.2 +6.1 25 +27 +27 жарко 1002.7 943.2 +38.7
06 18.05 З 2
{7}
20 км ясно +27.3 +8.6 31 +27 +37 жарко 1004.4 944.3 +20.5
07 18.05 З 2 20 км ясно +28.9 +8.5 28 +28 +43 жарко 1004.5 944.5
08 18.05 СЗ 2 20 км 5/0
[Cs]
+30.5 +7.6 24 +29 +47 жарко 1004.3 944.3
09 18.05 СЗ 1
{6}
20 км 5/0
[Cs]
+31.5 +7.2 22 +30 +51 опасность
солнечного
удара
1004.1 944.1
10 18.05 ЮЗ 2 20 км 5/0
[Cs]
+33.7 +7.6 20 +32 +52 опасность
солнечного
удара
1003.7 943.8
11 18.05 ЮЗ 2 20 км 5/0
[Cs]
+33.7 +8.4 21 +32 +48 жарко 1003.7 943.8
12 18.05 ЮЗ 2
{6}
20 км 5/0
[Cs]
+33.1 +7.1 20 +31 +45 жарко 1003.8 943.7
13 18.05 ЮЗ 2 20 км 3/0
[Cs]
+32.8 +5.4 18 +31 +40 жарко 1003.7 943.5
14 18.05 З 3 20 км 3/0
[Cs]
+31.4 +5.7 20 +30 +34 жарко 1003.8 943.4
15 18.05 З 3
{7}
20 км 3/0
[Cs]
+29.4 +3.3 19 +27 +29 жарко 1004.0 943.5
16 18.05 З 4 20 км ясно +27.4 +2.2 20 +26 +26 жарко 1004.8 944.0
17 18.05 З 3 20 км ясно +25.1 +4.6 27 +25 +25 комфорт 1005.6 944.9
18 18.05 З 2
{9}
20 км ясно +23.4 +4.2 29 +23 +23 комфорт 1006.4 945.7 +35.2
06 19.05 В 1
{4}
20 км 4/0
[Cs]
+23.5 +6.9 34 +24 +36 комфорт 1009.4 948.1 +15.2
07 19.05 Ю 2 20 км 4/0
[Cs]
+24.5 +6.2 31 +24 +39 комфорт 1009.7 948.3
08 19.05 З 1 20 км 4/0
[Cs]
+25.6 +6.2 29 +25 +45 комфорт 1009.7 948.3
09 19.05 З 1
{4}
20 км 4/0
[Cs]
+26.6 +4.9 25 +26 +47 жарко 1009.0 947.7
10 19.05 З 2 20 км 4/0
[Cs]
+28.2 +4.3 22 +27 +47 жарко 1008.5 947.3
11 19.05 З 2 20 км 3/0
[Cs]
+29.3 +4.0 20 +27 +46 жарко 1008.0 946.9
12 19.05 З 2
{6}
20 км 3/0
[Cs]
+29.9 +1.3 16 +27 +40 жарко 1007.2 946.2
13 19.05 З 2 20 км 3/0
[Cs]
+30.1 +3.7 19 +28 +38 жарко 1007.0 945.9
14 19.05 СЗ 3 20 км 3/0
[Cs]
+28.9 +2.9 19 +27 +31 жарко 1007.1 945.8
15 19.05 СЗ 3
{6}
20 км 3/0
[Cs]
+28.1 +5.0 23 +27 +28 жарко 1007.1 945.7
16 19.05 С 1 20 км 3/0
[Cs]
+27.2 +5.9 26 +26 +27 жарко 1007.5 946.1
17 19.05 С 1 20 км 3/0
[Cs]
+24.4 +6.6 32 +24 +24 комфорт 1007.4 946.2
18 19.05 З 1
{6}
20 км 3/0
[Cs]
+23.7 +7.7 36 +24 +24 комфорт 1007.8 946.6 +30.9
06 20.05 СЗ 3
{7}
20 км ясно +26.0 +6.5 29 +26 +35 жарко 1010.8 949.7 +20.8
07 20.05 СЗ 2 20 км ясно +27.2 +5.9 26 +26 +41 жарко 1011.0 950.0
08 20.05 СЗ 3 20 км ясно +28.9 +4.4 21 +27 +44 жарко 1011.0 950.2
09 20.05 СЗ 2
{6}
20 км ясно +30.6 +3.4 18 +28 +48 жарко 1010.7 950.0
10 20.05 СЗ 2 20 км ясно +31.1 +4.2 18 +29 +49 жарко 1010.5 949.8
11 20.05 СЗ 2 20 км ясно +31.5 +4.9 19 +29 +49 жарко 1009.9 949.2
12 20.05 З 2
{7}
20 км 3/3 1200 м
[Cu hum]
+31.8 +5.3 19 +30 +40 жарко 1009.3 948.7
13 20.05 СЗ 1 20 км 3/3 1000 м
[Cu hum]
+31.4 +4.1 18 +29 +37 жарко 1008.9 948.2
14 20.05 СЗ 2 20 км 4/4 1000 м
[Cu hum]
+31.0 +4.3 18 +29 +32 жарко 1008.8 948.1
15 20.05 СЗ 2
{6}
20 км 4/4 1200 м
[Cu hum]
+30.0 +5.9 22 +29 +30 жарко 1008.9 948.1
16 20.05 СВ 2 20 км в посл. час гроза 6/4 1000 м
[Cu med, cong Ac und]
+18.9 +15.7 82 +21 +21 комфорт 1011.4 949.4
17 20.05 штиль 0 20 км 4/4 1000 м
[Cu hum]
+20.9 +15.0 69 +24 +24 комфорт 1010.1 948.6
18 20.05 З 1
{10}
20 км {гроза} 3/3 1200 м
[Cu hum]
+22.6 +13.2 55 +26 +26 жарко 1010.1 948.9 +33.0 2
06 21.05 ЮВ 1
{5}
20 км 3/0
[Cs]
+25.9 +13.6 47 +28 +39 жарко 1012.9 951.6 +19.7
07 21.05 ЮВ 1 20 км 3/0
[Cs]
+28.9 +12.6 37 +30 +46 жарко 1012.7 951.7
08 21.05 ЮВ 2 20 км 6/4 1000 м
[Cu med, cong Ac trans]
+32.4 +12.2 29 +33 +42 жарко 1011.8 951.3
09 21.05 СЗ 2
{6}
20 км 4/4 1200 м
[Cu med, cong]
+33.2 +6.3 19 +31 +43 жарко 1011.5 951.1
10 21.05 СЗ 2 20 км 4/4 1000 м
[Cu med, cong]
+32.7 +6.0 19 +31 +43 жарко 1011.1 950.6
11 21.05 СЗ 2 20 км 4/4 1000 м
[Cu med, cong]
+32.7 +6.0 19 +31 +41 жарко 1011.3 950.6
12 21.05 СЗ 2
{7}
20 км 6/4 1200 м
[Cu med, cong Ac und]
+34.7 +6.0 17 +32 +39 жарко 1010.1 949.7
13 21.05 СЗ 2 20 км 6/4 1000 м
[Cu med, cong Ac und]
+34.0 +6.4 18 +32 +36 жарко 1009.6 949.1
14 21.05 З 3 20 км 6/4 1000 м
[Cu med, cong Ac und]
+33.2 +5.8 18 +31 +33 жарко 1009.2 948.7
15 21.05 З 2
{6}
20 км 6/4 1200 м
[Cu med, cong Ac und]
+32.6 +5.2 18 +30 +31 жарко 1009.2 948.6

 

Местоположение метеостанции Шанлыурфа (Турция): широта 37.13 долгота 38.77 высота над уровнем моря 549 м.

В архиве по умолчанию представлена погода в Шанлыурфе за последнюю неделю. Архивные данные за месяц целиком и за предыдущие месяцы, начиная с января 2011 года, Вы можете получить, выбрав интересующий диапазон дат из раскрывающегося списка и нажав кнопку "Ввод!".


*Определитесь, кто Вы:
робот инопланетянин человек

Внимание! Время в таблицах - всемирное. Для получения местного времени необходимо прибавить поправку, которая равна 2 ч.

Смотрите также архив погоды в соседних городах и на ближайших метеорологических станциях:

Погода в Аэропорту GAP (Турция) (35 км)
Погода в Эт-Телль-эль-Абьяде (Сирия) (50 км)
Погода в Адыямане (Турция) (81 км)
Погода в Газиантепе (Турция) (124 км)
Погода в Газиантепе (Турция) (126 км)
Погода в Ракке (Сирия) (135 км)
Погода в Аэропорту Малатья Тулга (Турция) (143 км)
Погода в Диярбакыре (Турция) (150 км)
Погода в Килисе (Турция) (154 км)
Погода в Аэропорту Малатья (Турция) (157 км)

Пояснения к столбцам:

Ветер - указаны скорость ветра в м/с - средняя за 10 мин, порывы в срок и между сроками (в фигурных скобках) и направление, откуда дует ветер: С - северный, СВ - северо-восточный, В - восточный, ЮВ - юго-восточный, Ю - южный, ЮЗ - юго-западный, З - западный, СЗ - северо-западный.
Видимость - горизонтальная дальность видимости в метрах или километрах. При видимости от 1 до 10 км при отсутствии осадков обычно наблюдается дымка, при ухудшении видимости до 1 км и менее - туман. В сухую погоду видимость может ухудшаться дымом, пылью или мглою.
Явления - указаны атмосферные явления, наблюдавшиеся в срок или в последний час перед сроком; фигурными скобками обозначены явления, наблюдавшиеся между сроками (за 1-3 часа до срока); квадратными скобками обозначены град или гололедные отложения с указанием их диаметра в мм.
Облачность - указаны через наклонную черту общая и нижняя облачность в баллах и высота нижней границы облаков в метрах; квадратными скобками обозначены формы облаков: Ci - перистые, Cs - перисто-слоистые, Cc - перисто-кучевые, Ac - высококучевые, As - высокослоистые, Sc - слоисто-кучевые, Ns - слоисто-дождевые, Cu - кучевые, Cb - кучево-дождевые. Подробнее классификацию облаков см. в Атласе облаков (PDF).
T - Температура воздуха - температура, измеренная на высоте 2 м над землей.
Td - Температура точки росы - температура, при понижении до которой содержащийся в воздухе водяной пар достигнет насыщения.
f - Относительная влажность воздуха - влажноcть воздуха, измеренная на высоте 2 м над землей.
Te - Эффективная температура - температура, которую ощущает одетый по сезону человек в тени. Характеристика душности погоды. При расчете учитывается влияние влажности воздуха и скорости ветра на теплоощущения человека.
Tes - Эффективная температура на солнце - температура, которую ощущает человек, с поправкой на солнечный нагрев. Характеристика знойности погоды. Зависит от высоты солнца над горизонтом, облачности и скорости ветра. Ночью, в пасмурную погоду, а также при ветре 12 м/с и более поправка равна нулю.
P - Атмосферное давление - приведенное к уровню моря атмосферное давление.
Po - Атмосферное давление - измеренное на уровне метеостанции атмосферное давление.
Tmin - Минимальная температура - минимум температуры воздуха на высоте 2 м над землей.
Tmax - Максимальная температура - максимум температуры воздуха на высоте 2 м над землей.
R - Количество осадков - Количество выпавших осадков за период времени, мм. При наведении курсора мыши на число - период времени, за который выпало указанное количество осадков.
R24 - Количество осадков - Количество выпавших осадков за 24 часа, мм.
S - Снежный покров - Высота снежного покрова, см. При наведении курсора мыши на число - состояние снежного покрова и степень покрытия местности в баллах.